{"data":{"norad_id":63990,"epoch":"2026-05-25T03:21:22.796352Z","epoch_age_seconds":66898,"freshness":"FRESH","line1":"1 63990U 25100J   26145.13984718  .00024238  00000+0  82292-3 0  9998","line2":"2 63990  97.3629 221.0136 0008707  25.9082 334.2593 15.30457749 57284","mean_motion":15.30457749,"eccentricity":0.0008707,"inclination_deg":97.3629,"raan_deg":221.0136,"arg_perigee_deg":25.9082,"mean_anomaly_deg":334.2593,"bstar":0.00082292,"rev_number":5728,"period_min":94.089497141682,"perigee_km":468.47904171759,"apogee_km":480.41212903176,"semimajor_km":6852.5825853747,"source":"CELESTRAK","updated_at":"2026-05-25T13:38:04.149454Z"}}